CW4279 Weather Reports


time (UTC)temp
C
wind
direction
speed
KPH
gust
KPH
rain 1hr
cm
rain 24hr
cm
rain mn
cm
humidity
%
barometer
mb
20260906173759 27 152 3.2 3.2 0.00 0.00 0.00 64 1050.9
20260906173255 27 172 1.6 4.8 0.00 0.00 0.00 67 1050.9
20260906172753 27 139 1.6 3.2 0.00 0.00 0.00 68 1051.0
20260906172250 27 152 1.6 3.2 0.00 0.00 0.00 68 1050.8
20260906171744 27 169 1.6 4.8 0.00 0.00 0.00 67 1050.8
20260906171239 27 168 3.2 8.0 0.00 0.00 0.00 67 1050.8
20260906170735 27 164 4.8 4.8 0.00 0.00 0.00 69 1051.0
20260906170231 27 171 3.2 4.8 0.00 0.00 0.00 68 1051.1
20260906165727 27 156 1.6 4.8 0.00 0.00 0.00 71 1051.1
20260906165221 26 165 3.2 3.2 0.00 0.00 0.00 71 1051.0
20260906164721 26 160 3.2 3.2 0.00 0.00 0.00 71 1051.3
20260906164216 26 140 4.8 4.8 0.00 0.00 0.00 70 1051.0
20260906163712 26 165 1.6 8.0 0.00 0.00 0.00 71 1051.4
20260906163208 26 159 4.8 8.0 0.00 0.00 0.00 69 1051.3
20260906162704 26 168 3.2 3.2 0.00 0.00 0.00 72 1051.4
20260906162204 26 158 4.8 4.8 0.00 0.00 0.00 74 1051.6
20260906161659 25 160 3.2 4.8 0.00 0.00 0.00 74 1051.8
20260906161158 25 160 3.2 4.8 0.00 0.00 0.00 74 1051.8
20260906160657 25 150 3.2 4.8 0.00 0.00 0.00 74 1051.9
20260906160156 25 159 1.6 3.2 0.00 0.00 0.00 74 1051.7
20260906155654 25 167 3.2 4.8 0.00 0.00 0.00 74 1051.8
20260906155150 25 159 1.6 4.8 0.00 0.00 0.00 75 1051.9
20260906154645 25 173 3.2 3.2 0.00 0.00 0.00 76 1051.8
20260906154144 25 165 1.6 4.8 0.00 0.00 0.00 76 1051.7
20260906153643 25 158 1.6 3.2 0.00 0.00 0.00 77 1051.7
20260906153138 25 158 3.2 4.8 0.00 0.00 0.00 77 1051.5
20260906152632 25 139 1.6 3.2 0.00 0.00 0.00 79 1051.7
20260906152127 24 166 1.6 3.2 0.00 0.00 0.00 80 1051.8
20260906151621 24 149 1.6 3.2 0.00 0.00 0.00 80 1051.6
20260906151118 24 157 3.2 3.2 0.00 0.00 0.00 80 1051.7
20260906150613 24 150 1.6 3.2 0.00 0.00 0.00 79 1051.8
20260906150108 24 156 3.2 3.2 0.00 0.00 0.00 81 1051.7
20260906145607 23 145 3.2 4.8 0.00 0.00 0.00 82 1051.6
20260906145102 23 166 3.2 3.2 0.00 0.00 0.00 83 1051.1
20260906144556 23 152 3.2 4.8 0.00 0.00 0.00 84 1051.2
20260906144052 23 151 4.8 8.0 0.00 0.00 0.00 83 1051.5
20260906143546 23 172 4.8 8.0 0.00 0.00 0.00 85 1051.4
20260906143044 22 152 3.2 3.2 0.00 0.00 0.00 86 1051.3
20260906142542 22 149 4.8 4.8 0.00 0.00 0.00 86 1051.2
20260906142038 22 174 3.2 3.2 0.00 0.00 0.00 88 1051.0
20260906141537 22 155 1.6 4.8 0.00 0.00 0.00 88 1051.3
20260906141033 22 146 1.6 3.2 0.00 0.00 0.00 90 1051.2
20260906140532 21 150 0.0 1.6 0.00 0.00 0.00 92 1051.3
20260906140031 21 157 0.0 1.6 0.00 0.00 0.00 93 1051.6
20260906135528 21 145 1.6 1.6 0.00 0.00 0.00 93 1051.5
20260906135024 20 147 3.2 3.2 0.00 0.00 0.00 95 1051.2
20260906134519 20 155 3.2 3.2 0.00 0.00 0.00 95 1051.4
20260906134014 20 163 0.0 3.2 0.00 0.00 0.00 96 1051.3
20260906133510 20 149 1.6 1.6 0.00 0.00 0.00 97 1051.5
20260906133006 20 151 0.0 3.2 0.00 0.00 0.00 97 1051.3
20260906132501 20 157 1.6 1.6 0.00 0.00 0.00 97 1051.5
20260906131955 20 148 1.6 1.6 0.00 0.00 0.00 97 1051.6
20260906131451 19 162 1.6 3.2 0.00 0.00 0.00 98 1051.3
20260906130947 19 159 0.0 1.6 0.00 0.00 0.00 98 1051.2
20260906130446 18 159 0.0 1.6 0.00 0.00 0.00 98 1051.2
20260906125940 19 138 0.0 0.0 0.00 0.00 0.00 98 1051.2
20260906125438 19 152 0.0 1.6 0.00 0.00 0.00 98 1051.2
20260906124937 18 156 0.0 3.2 0.00 0.00 0.00 98 1051.1
20260906124434 18 152 0.0 1.6 0.00 0.00 0.00 99 1051.2
20260906123933 18 166 1.6 1.6 0.00 0.00 0.00 99 1051.1
20260906123433 18 152 1.6 3.2 0.00 0.00 0.00 99 1051.3
20260906122927 18 154 1.6 4.8 0.00 0.00 0.00 99 1050.9
20260906122422 18 154 0.0 3.2 0.00 0.00 0.00 99 1050.9
20260906121919 18 162 1.6 3.2 0.00 0.00 0.00 99 1051.0
20260906121415 18 151 1.6 4.8 0.00 0.00 0.00 99 1050.9
20260906120911 17 160 0.0 1.6 0.00 0.00 0.00 99 1051.1
20260906120406 17 140 0.0 0.0 0.00 0.00 0.00 99 1051.0
20260906115902 17 153 0.0 1.6 0.00 0.00 0.00 99 1050.9
20260906115358 17 149 0.0 0.0 0.00 0.00 0.00 99 1051.0
20260906114856 17 155 0.0 0.0 0.00 0.00 0.00 99 1050.9
20260906114352 17 156 0.0 0.0 0.00 0.00 0.00 99 1050.9
20260906113847 17 175 0.0 1.6 0.00 0.00 0.00 99 1050.8
20260906113346 17 155 0.0 0.0 0.00 0.00 0.00 99 1050.8
20260906112842 17 156 0.0 0.0 0.00 0.00 0.00 99 1050.6
20260906112337 17 154 0.0 0.0 0.00 0.00 0.00 99 1051.0
20260906111832 17 129 0.0 0.0 0.00 0.00 0.00 99 1050.9
20260906111332 17 155 0.0 0.0 0.00 0.00 0.00 99 1050.6
20260906110827 17 155 0.0 0.0 0.00 0.00 0.00 99 1050.5
20260906110323 17 153 0.0 0.0 0.00 0.00 0.00 99 1050.6
20260906105821 18 153 0.0 0.0 0.00 0.00 0.00 99 1050.4
20260906105317 18 155 0.0 1.6 0.00 0.00 0.00 99 1050.6
20260906104813 18 151 0.0 1.6 0.00 0.00 0.00 99 1050.2
20260906104311 18 152 0.0 1.6 0.00 0.00 0.00 99 1050.3
20260906103809 18 157 1.6 1.6 0.00 0.00 0.00 99 1050.2
20260906103303 18 151 1.6 1.6 0.00 0.00 0.00 99 1050.3
20260906102759 18 152 0.0 1.6 0.00 0.00 0.00 99 1050.4
20260906102258 18 153 0.0 1.6 0.00 0.00 0.00 99 1050.4
20260906101754 17 153 0.0 1.6 0.00 0.00 0.00 99 1050.0
20260906101248 17 153 0.0 0.0 0.00 0.00 0.00 99 1050.1
20260906100744 17 149 0.0 0.0 0.00 0.00 0.00 99 1050.0
20260906100243 17 137 0.0 0.0 0.00 0.00 0.00 99 1049.8
20260906095738 17 148 0.0 0.0 0.00 0.00 0.00 99 1049.9
20260906095233 17 148 0.0 0.0 0.00 0.00 0.00 99 1049.6
20260906094732 17 160 0.0 1.6 0.00 0.00 0.00 99 1049.8
20260906094222 17 153 0.0 0.0 0.00 0.00 0.00 99 1049.7
20260906093718 17 130 0.0 0.0 0.00 0.00 0.00 99 1049.8
20260906093214 17 130 0.0 1.6 0.00 0.00 0.00 99 1049.8
20260906092709 17 130 0.0 0.0 0.00 0.00 0.00 99 1049.9
20260906092208 17 130 0.0 0.0 0.00 0.00 0.00 99 1049.8
20260906091705 17 130 0.0 0.0 0.00 0.00 0.00 99 1049.9
20260906091201 17 130 0.0 0.0 0.00 0.00 0.00 99 1050.2
20260906090657 17 130 0.0 1.6 0.00 0.00 0.00 99 1050.3
20260906090155 17 130 0.0 1.6 0.00 0.00 0.00 99 1050.0
20260906085655 17 149 0.0 0.0 0.00 0.00 0.00 99 1050.2
20260906085149 17 134 0.0 0.0 0.00 0.00 0.00 99 1049.8
20260906084643 17 138 0.0 0.0 0.00 0.00 0.00 99 1049.9
20260906084143 18 148 0.0 0.0 0.00 0.00 0.00 99 1049.8
20260906083638 17 154 0.0 0.0 0.00 0.00 0.00 99 1049.9
20260906083133 17 127 0.0 0.0 0.00 0.00 0.00 99 1049.8
20260906082629 17 125 0.0 0.0 0.00 0.00 0.00 99 1050.0
20260906082124 17 136 0.0 1.6 0.00 0.00 0.00 99 1049.8
20260906081620 18 149 0.0 1.6 0.00 0.00 0.00 99 1049.8
20260906081115 18 105 0.0 3.2 0.00 0.00 0.00 99 1049.5
20260906080611 18 127 0.0 1.6 0.00 0.00 0.00 99 1049.7
20260906080107 18 93 1.6 3.2 0.00 0.00 0.00 99 1049.8
20260906075601 18 126 0.0 0.0 0.00 0.00 0.00 99 1049.6
20260906075055 18 126 0.0 0.0 0.00 0.00 0.00 99 1049.4
20260906074551 18 126 0.0 0.0 0.00 0.00 0.00 99 1049.4
20260906074049 18 126 0.0 0.0 0.00 0.00 0.00 99 1049.5
20260906073544 18 126 0.0 0.0 0.00 0.00 0.00 99 1049.6
20260906073040 18 126 0.0 0.0 0.00 0.00 0.00 99 1049.6
20260906072535 18 126 0.0 0.0 0.00 0.00 0.00 99 1049.7
20260906072031 18 126 0.0 0.0 0.00 0.00 0.00 99 1050.0
20260906071527 18 126 0.0 0.0 0.00 0.00 0.00 99 1050.0
20260906071022 18 126 0.0 0.0 0.00 0.00 0.00 99 1050.0
20260906070519 18 126 0.0 0.0 0.00 0.00 0.00 99 1050.1
20260906070014 18 126 0.0 0.0 0.00 0.00 0.00 99 1050.1
20260906065513 18 126 0.0 0.0 0.00 0.00 0.00 99 1050.0
20260906065009 18 126 0.0 0.0 0.00 0.00 0.00 99 1050.2
20260906064505 18 126 0.0 0.0 0.00 0.00 0.00 99 1050.2
20260906064000 18 126 0.0 0.0 0.00 0.00 0.00 99 1050.1
20260906063456 18 126 0.0 0.0 0.00 0.00 0.00 99 1050.4
20260906062955 18 126 0.0 0.0 0.00 0.00 0.00 99 1050.2
20260906062450 18 126 0.0 0.0 0.00 0.00 0.00 99 1050.3
20260906061945 18 127 0.0 0.0 0.00 0.00 0.00 99 1050.1
20260906061441 18 127 0.0 0.0 0.00 0.00 0.00 99 1050.0
20260906060936 18 122 0.0 0.0 0.00 0.00 0.00 99 1050.0
20260906060433 18 145 0.0 0.0 0.00 0.00 0.00 99 1050.0
20260906055929 18 151 0.0 0.0 0.00 0.00 0.00 98 1050.1
20260906055425 18 139 0.0 1.6 0.00 0.00 0.00 98 1050.0
20260906054920 18 139 0.0 0.0 0.00 0.00 0.00 98 1050.0
20260906054415 19 139 0.0 0.0 0.00 0.00 0.00 98 1050.1
20260906053911 19 139 0.0 0.0 0.00 0.00 0.00 98 1050.0
20260906053406 19 140 0.0 0.0 0.00 0.00 0.00 97 1050.2
20260906052902 20 140 0.0 0.0 0.00 0.00 0.00 97 1050.2
20260906052358 20 140 0.0 1.6 0.00 0.00 0.00 97 1050.1
20260906051855 20 127 0.0 0.0 0.00 0.00 0.00 97 1050.1
20260906051354 20 116 0.0 0.0 0.00 0.00 0.00 97 1050.0
20260906050850 20 128 0.0 0.0 0.00 0.00 0.00 97 1050.0
20260906050345 20 128 0.0 1.6 0.00 0.00 0.00 97 1050.0
20260906045844 20 129 0.0 0.0 0.00 0.00 0.00 97 1050.2
20260906045338 20 131 0.0 1.6 0.00 0.00 0.00 97 1050.2
20260906044834 20 118 0.0 1.6 0.00 0.00 0.00 97 1050.1
20260906044329 20 113 0.0 1.6 0.00 0.00 0.00 97 1049.9
20260906043826 20 125 0.0 1.6 0.00 0.00 0.00 97 1050.1
20260906043321 20 111 0.0 1.6 0.00 0.00 0.00 96 1050.1
20260906042820 20 110 1.6 1.6 0.00 0.00 0.00 96 1050.4
20260906042319 20 110 1.6 1.6 0.00 0.00 0.00 96 1050.3
20260906041815 20 135 0.0 0.0 0.00 0.00 0.00 96 1050.3
20260906041310 20 135 0.0 0.0 0.00 0.00 0.00 95 1050.0
20260906040805 20 135 0.0 0.0 0.00 0.00 0.00 95 1050.1
20260906040301 20 135 0.0 0.0 0.00 0.00 0.00 95 1049.9
20260906035756 20 135 0.0 0.0 0.00 0.00 0.00 94 1050.1
20260906035251 20 134 0.0 0.0 0.00 0.00 0.00 94 1049.9
20260906034746 20 169 0.0 0.0 0.00 0.00 0.00 94 1049.9
20260906034241 20 169 0.0 0.0 0.00 0.00 0.00 93 1049.9
20260906033737 20 169 0.0 0.0 0.00 0.00 0.00 92 1050.0
20260906033236 20 169 0.0 0.0 0.00 0.00 0.00 92 1050.1
20260906032733 21 170 1.6 1.6 0.00 0.00 0.00 92 1050.1
20260906032232 21 161 1.6 1.6 0.00 0.00 0.00 92 1050.1
20260906031728 21 163 0.0 1.6 0.00 0.00 0.00 92 1049.9
20260906031224 21 160 0.0 0.0 0.00 0.00 0.00 93 1050.1
20260906030723 20 157 0.0 0.0 0.00 0.00 0.00 93 1050.0
20260906030218 20 155 0.0 0.0 0.00 0.00 0.00 94 1050.2
20260906025717 20 153 0.0 0.0 0.00 0.00 0.00 94 1050.1
20260906025212 20 152 0.0 1.6 0.00 0.00 0.00 95 1050.1
20260906024711 20 129 0.0 0.0 0.00 0.00 0.00 95 1050.2
20260906024210 20 129 0.0 0.0 0.00 0.00 0.00 95 1050.3
20260906023706 20 126 0.0 0.0 0.00 0.00 0.00 95 1050.2
20260906023201 20 126 0.0 0.0 0.00 0.00 0.00 95 1050.0
20260906022656 20 126 0.0 0.0 0.00 0.00 0.00 95 1050.1
20260906022152 20 126 0.0 0.0 0.00 0.00 0.00 94 1050.1
20260906021648 20 126 0.0 0.0 0.00 0.00 0.00 94 1049.9
20260906021146 20 126 0.0 0.0 0.00 0.00 0.00 94 1050.0
20260906020641 21 113 0.0 0.0 0.00 0.00 0.00 93 1050.1
20260906020136 21 126 0.0 0.0 0.00 0.00 0.00 93 1049.7
20260906015630 21 126 0.0 0.0 0.00 0.00 0.00 92 1049.6
20260906015128 21 129 0.0 0.0 0.00 0.00 0.00 92 1049.7
20260906014623 21 130 0.0 1.6 0.00 0.00 0.00 91 1049.2
20260906014119 21 126 0.0 0.0 0.00 0.00 0.00 90 1049.1
20260906013614 22 126 0.0 0.0 0.00 0.00 0.00 90 1049.0
20260906013110 22 131 0.0 0.0 0.00 0.00 0.00 88 1048.7
20260906012605 22 130 0.0 0.0 0.00 0.00 0.00 88 1048.1
20260906012105 22 122 0.0 0.0 0.00 0.00 0.00 87 1048.1
20260906011601 22 130 0.0 0.0 0.00 0.00 0.00 86 1047.7
20260906011055 22 132 0.0 1.6 0.00 0.00 0.00 86 1047.8
20260906010550 23 131 0.0 1.6 0.00 0.00 0.00 85 1047.8
20260906010047 23 103 1.6 1.6 0.00 0.00 0.00 84 1047.5
20260906005546 23 145 0.0 1.6 0.00 0.00 0.00 83 1047.6
20260906005045 23 147 0.0 0.0 0.00 0.00 0.00 82 1047.8
20260906004544 24 146 0.0 1.6 0.00 0.00 0.00 81 1047.3
20260906004039 24 148 0.0 0.0 0.00 0.00 0.00 80 1047.4
20260906003534 25 154 0.0 1.6 0.00 0.00 0.00 79 1047.0
20260906003031 25 147 0.0 3.2 0.00 0.00 0.00 78 1047.2
20260906002525 25 144 0.0 3.2 0.00 0.00 0.00 78 1047.0
20260906002020 25 70 3.2 3.2 0.00 0.00 0.00 77 1046.9
20260906001515 25 149 0.0 3.2 0.00 0.00 0.00 77 1046.9
20260906001009 25 129 1.6 3.2 0.00 0.00 0.00 76 1047.0
20260906000506 25 135 0.0 3.2 0.00 0.00 0.00 75 1047.2
20260906000006 26 113 0.0 3.2 0.00 0.00 0.00 74 1047.1
20260905235500 26 66 4.8 8.0 0.00 0.00 0.00 73 1046.8
20260905234955 26 112 1.6 1.6 0.00 0.00 0.00 73 1046.8
20260905234450 26 126 1.6 3.2 0.00 0.00 0.00 72 1047.1
20260905233944 26 70 4.8 8.0 0.00 0.00 0.00 72 1047.3
20260905233440 26 155 1.6 1.6 0.00 0.00 0.00 72 1047.5
20260905232939 26 159 0.0 1.6 0.00 0.00 0.00 72 1047.3
20260905232435 26 52 1.6 3.2 0.00 0.00 0.00 71 1047.5
20260905231930 27 142 0.0 1.6 0.00 0.00 0.00 69 1047.3
20260905231426 27 155 4.8 8.0 0.00 0.00 0.00 69 1047.4
20260905230917 27 81 3.2 3.2 0.00 0.00 0.00 69 1047.6
20260905230414 27 146 0.0 4.8 0.00 0.00 0.00 70 1047.6
20260905225908 27 71 1.6 3.2 0.00 0.00 0.00 69 1047.8
20260905225403 27 158 0.0 3.2 0.00 0.00 0.00 70 1047.8
20260905224858 27 48 4.8 4.8 0.00 0.00 0.00 68 1047.8
20260905224353 27 144 0.0 1.6 0.00 0.00 0.00 69 1048.1
20260905223847 27 149 0.0 3.2 0.00 0.00 0.00 69 1047.7
20260905223346 27 141 3.2 3.2 0.00 0.00 0.00 68 1047.7
20260905222840 27 149 0.0 4.8 0.00 0.00 0.00 69 1047.8
20260905222339 27 117 3.2 3.2 0.00 0.00 0.00 69 1047.8
20260905221835 27 67 6.4 8.0 0.00 0.00 0.00 69 1047.9
20260905221332 28 79 4.8 4.8 0.00 0.00 0.00 67 1047.9
20260905220827 28 122 0.0 1.6 0.00 0.00 0.00 68 1047.8
20260905220323 28 148 1.6 3.2 0.00 0.00 0.00 69 1048.0
20260905215822 27 159 1.6 8.0 0.00 0.00 0.00 70 1047.6
20260905215318 28 96 3.2 3.2 0.00 0.00 0.00 69 1047.7
20260905214815 27 151 1.6 3.2 0.00 0.00 0.00 71 1047.9
20260905214310 27 180 1.6 4.8 0.00 0.00 0.00 70 1048.0
20260905213804 28 330 1.6 4.8 0.00 0.00 0.00 71 1048.0
20260905213300 28 215 3.2 8.0 0.00 0.00 0.00 70 1048.0
20260905212755 27 118 3.2 3.2 0.00 0.00 0.00 71 1048.2
20260905212254 27 136 4.8 9.7 0.00 0.00 0.00 72 1048.5
20260905211749 27 163 0.0 1.6 0.00 0.00 0.00 69 1048.6
20260905211244 27 135 1.6 3.2 0.00 0.00 0.00 73 1048.5
20260905210740 27 137 1.6 3.2 0.00 0.00 0.00 72 1048.7
20260905210235 27 164 1.6 4.8 0.00 0.00 0.00 72 1048.7
20260905205734 27 157 1.6 3.2 0.00 0.00 0.00 70 1048.9
20260905205229 27 111 1.6 4.8 0.00 0.00 0.00 73 1049.2
20260905204728 27 156 1.6 1.6 0.00 0.00 0.00 73 1048.9
20260905204224 27 163 1.6 3.2 0.00 0.00 0.00 73 1049.2
20260905203723 27 113 1.6 1.6 0.00 0.00 0.00 74 1049.1
20260905203219 27 85 3.2 4.8 0.00 0.00 0.00 73 1049.2
20260905202714 27 158 0.0 1.6 0.00 0.00 0.00 73 1049.2
20260905202209 27 270 3.2 3.2 0.00 0.00 0.00 73 1049.5
20260905201704 27 136 0.0 1.6 0.00 0.00 0.00 74 1049.6
20260905201159 26 109 1.6 4.8 0.00 0.00 0.00 74 1049.6
20260905200654 27 179 3.2 4.8 0.00 0.00 0.00 72 1049.6
20260905200149 26 134 1.6 4.8 0.00 0.00 0.00 75 1049.8
20260905195647 26 86 4.8 8.0 0.00 0.00 0.00 76 1049.8
20260905195142 27 50 4.8 4.8 0.00 0.00 0.00 71 1049.6
20260905194637 26 115 1.6 4.8 0.00 0.00 0.00 75 1049.7
20260905194132 26 80 1.6 3.2 0.00 0.00 0.00 75 1049.7
20260905193627 26 134 0.0 3.2 0.00 0.00 0.00 76 1049.8
20260905193121 26 143 1.6 3.2 0.00 0.00 0.00 75 1049.6
20260905192617 26 49 3.2 4.8 0.00 0.00 0.00 74 1049.5
20260905192113 26 106 1.6 3.2 0.00 0.00 0.00 77 1049.7
20260905191612 26 118 0.0 1.6 0.00 0.00 0.00 76 1049.8
20260905191111 25 183 1.6 1.6 0.00 0.00 0.00 79 1049.8
20260905190609 25 141 1.6 3.2 0.00 0.00 0.00 79 1049.8
20260905190108 25 132 0.0 4.8 0.00 0.00 0.00 79 1049.6
20260905185607 25 104 1.6 3.2 0.00 0.00 0.00 79 1049.7
20260905185102 25 155 1.6 4.8 0.00 0.00 0.00 80 1049.6
20260905184557 24 137 0.0 1.6 0.00 0.00 0.00 82 1049.9
20260905184055 25 43 3.2 4.8 0.00 0.00 0.00 80 1049.9
20260905183554 25 80 1.6 3.2 0.00 0.00 0.00 80 1049.6
20260905183045 24 149 0.0 3.2 0.00 0.00 0.00 82 1049.9
20260905182544 24 355 1.6 3.2 0.00 0.00 0.00 82 1049.6
20260905182038 24 92 4.8 4.8 0.00 0.00 0.00 81 1049.6
20260905181533 25 22 3.2 3.2 0.00 0.00 0.00 81 1049.7
20260905181032 24 107 3.2 8.0 0.00 0.00 0.00 82 1049.8
20260905180527 23 140 0.0 1.6 0.00 0.00 0.00 82 1050.1
20260905180023 23 119 0.0 1.6 0.00 0.00 0.00 85 1050.0
20260905175522 22 100 1.6 3.2 0.00 0.00 0.00 87 1050.0
20260905175018 23 82 1.6 4.8 0.00 0.00 0.00 86 1049.9
20260905174513 23 135 1.6 4.8 0.00 0.00 0.00 85 1050.0
20260905174009 23 24 3.2 11.3 0.00 0.00 0.00 85 1049.8